COSMOS 2361 1 25590U 98076A 10076.57534106 .00000063 00000-0 51782-4 0 2940 2 25590 82.9281 273.0926 0032871 46.1989 314.1887 13.72716312562536 COSMOS 2378 1 26818U 01023A 10077.14472396 .00000044 00000-0 30999-4 0 2818 2 26818 82.9266 299.0555 0033685 11.0853 349.1037 13.73742346439944 COSMOS 2389 1 27436U 02026A 10076.55937932 .00000049 00000-0 36280-4 0 187 2 27436 82.9451 240.4166 0044925 259.2226 100.3866 13.74740302391534 COSMOS 2398 1 27818U 03023A 10077.00474472 .00000000 00000-0 -16053-4 0 8682 2 27818 82.9496 187.2116 0029965 232.8227 127.0182 13.71962466339796 COSMOS 2407 1 28380U 04028A 10076.73639333 .00000033 00000-0 19192-4 0 6872 2 28380 82.9621 148.4291 0037765 287.9110 71.7942 13.75850968283809 COSMOS 2414 1 28521U 05002A 10076.43635173 -.00000006 00000-0 -17750-4 0 6147 2 28521 82.9481 210.6300 0039630 329.0244 30.8571 13.87355680260984 COSMOS 2429 1 32052U 07038A 10077.00296511 .00000020 00000-0 50131-5 0 7950 2 32052 82.9751 258.2930 0036927 243.5282 116.2087 13.74700981126181 COSMOS 2454 1 35635U 09039A 10076.67505541 .00000138 00000-0 10000-3 0 2292 2 35635 82.9550 205.1465 0018619 319.9058 40.0726 13.89389773 33256